Time,TemperatureF,DewpointF,PressureIn,WindDirection,WindDirectionDegrees,WindSpeedMPH,WindSpeedGustMPH,Humidity,HourlyPrecipIn,Conditions,Clouds,dailyrainin,SoftwareType,DateUTC
2013-01-06 00:14:00,40.9,22.0,30.25,WSW,241,5.0,10.0,48,0.00,,,0.00,weatherlink.com 1.10,2013-01-06 08:14:00,
2013-01-06 00:29:00,41.1,22.0,30.23,WNW,294,3.0,14.0,46,0.00,,,0.00,weatherlink.com 1.10,2013-01-06 08:29:00,
2013-01-06 00:44:00,41.1,23.0,30.23,West,267,8.0,14.0,48,0.00,,,0.00,weatherlink.com 1.10,2013-01-06 08:44:00,
2013-01-06 00:59:00,41.2,23.0,30.23,West,276,6.0,15.0,48,0.00,,,0.00,weatherlink.com 1.10,2013-01-06 08:59:00,
2013-01-06 01:14:00,41.2,23.0,30.23,WNW,295,2.0,14.0,48,0.00,,,0.00,weatherlink.com 1.10,2013-01-06 09:14:00,
2013-01-06 01:29:00,40.9,22.0,30.22,South,179,10.0,12.0,47,0.00,,,0.00,weatherlink.com 1.10,2013-01-06 09:29:00,
2013-01-06 01:44:00,40.5,21.0,30.22,West,263,3.0,12.0,46,0.00,,,0.00,weatherlink.com 1.10,2013-01-06 09:44:00,
2013-01-06 01:59:00,40.2,21.0,30.22,West,272,6.0,14.0,47,0.00,,,0.00,weatherlink.com 1.10,2013-01-06 09:59:00,
2013-01-06 02:14:00,40.1,24.0,30.22,SE,132,4.0,17.0,52,0.00,,,0.00,weatherlink.com 1.10,2013-01-06 10:14:00,
2013-01-06 02:29:00,38.6,26.0,30.22,SSW,203,8.0,12.0,61,0.00,,,0.00,weatherlink.com 1.10,2013-01-06 10:29:00,
2013-01-06 02:45:00,36.1,28.0,30.22,SSE,148,3.0,12.0,73,0.00,,,0.00,weatherlink.com 1.10,2013-01-06 10:45:00,
2013-01-06 03:00:00,34.6,30.0,30.21,NW,307,5.0,15.0,82,0.00,,,0.00,weatherlink.com 1.10,2013-01-06 11:00:00,
2013-01-06 03:15:00,33.8,30.0,30.21,SW,214,3.0,12.0,87,0.01,,,0.01,weatherlink.com 1.10,2013-01-06 11:15:00,
2013-01-06 03:30:00,33.3,30.0,30.21,WNW,295,0.0,8.0,89,0.02,,,0.02,weatherlink.com 1.10,2013-01-06 11:30:00,
2013-01-06 03:45:00,32.9,30.0,30.20,South,188,2.0,11.0,90,0.02,,,0.02,weatherlink.com 1.10,2013-01-06 11:45:00,
2013-01-06 04:00:00,32.7,30.0,30.18,South,188,2.0,5.0,91,0.03,,,0.03,weatherlink.com 1.10,2013-01-06 12:00:00,
2013-01-06 04:15:00,32.7,31.0,30.19,SW,221,2.0,5.0,92,0.02,,,0.03,weatherlink.com 1.10,2013-01-06 12:15:00,
2013-01-06 04:30:00,33.0,31.0,30.19,WNW,301,2.0,3.0,92,0.01,,,0.03,weatherlink.com 1.10,2013-01-06 12:30:00,
2013-01-06 04:45:00,33.7,32.0,30.19,West,259,1.0,5.0,93,0.01,,,0.03,weatherlink.com 1.10,2013-01-06 12:45:00,
2013-01-06 05:00:00,34.4,33.0,30.18,South,186,1.0,6.0,93,0.00,,,0.03,weatherlink.com 1.10,2013-01-06 13:00:00,
2013-01-06 05:15:00,34.3,33.0,30.19,SSW,207,2.0,6.0,93,0.00,,,0.03,weatherlink.com 1.10,2013-01-06 13:15:00,
2013-01-06 05:30:00,34.4,33.0,30.18,WSW,249,2.0,8.0,93,0.00,,,0.03,weatherlink.com 1.10,2013-01-06 13:30:00,
2013-01-06 05:45:00,34.9,33.0,30.18,WNW,284,4.0,11.0,93,0.00,,,0.03,weatherlink.com 1.10,2013-01-06 13:45:00,
2013-01-06 06:00:00,35.2,33.0,30.18,SW,217,4.0,11.0,92,0.00,,,0.03,weatherlink.com 1.10,2013-01-06 14:00:00,
2013-01-06 06:15:00,35.3,33.0,30.18,SSW,208,3.0,10.0,91,0.00,,,0.03,weatherlink.com 1.10,2013-01-06 14:15:00,
2013-01-06 06:30:00,35.3,33.0,30.19,West,259,2.0,12.0,90,0.00,,,0.03,weatherlink.com 1.10,2013-01-06 14:30:00,
2013-01-06 06:45:00,35.2,33.0,30.18,South,186,11.0,14.0,91,0.00,,,0.03,weatherlink.com 1.10,2013-01-06 14:45:00,
2013-01-06 07:00:00,35.2,33.0,30.18,SSW,203,10.0,17.0,90,0.00,,,0.03,weatherlink.com 1.10,2013-01-06 15:00:00,
2013-01-06 07:15:00,34.9,33.0,30.18,SW,218,13.0,18.0,91,0.00,,,0.03,weatherlink.com 1.10,2013-01-06 15:15:00,
2013-01-06 07:30:00,35.1,33.0,30.18,WNW,289,3.0,15.0,90,0.00,,,0.03,weatherlink.com 1.10,2013-01-06 15:30:00,
2013-01-06 07:45:00,35.0,32.0,30.18,SSE,167,5.0,16.0,90,0.00,,,0.03,weatherlink.com 1.10,2013-01-06 15:45:00,
2013-01-06 08:00:00,35.1,33.0,30.18,SSW,208,10.0,17.0,90,0.00,,,0.03,weatherlink.com 1.10,2013-01-06 16:00:00,
2013-01-06 08:15:00,35.2,33.0,30.19,SW,215,6.0,17.0,90,0.00,,,0.03,weatherlink.com 1.10,2013-01-06 16:15:00,
2013-01-06 08:30:00,35.3,32.0,30.19,SSE,160,8.0,17.0,89,0.00,,,0.03,weatherlink.com 1.10,2013-01-06 16:30:00,
2013-01-06 08:45:00,35.3,33.0,30.19,WSW,250,5.0,17.0,90,0.00,,,0.03,weatherlink.com 1.10,2013-01-06 16:45:00,
2013-01-06 09:00:00,36.2,33.0,30.19,SSW,205,11.0,15.0,88,0.00,,,0.03,weatherlink.com 1.10,2013-01-06 17:00:00,
2013-01-06 09:15:00,36.3,33.0,30.19,West,278,10.0,17.0,87,0.00,,,0.03,weatherlink.com 1.10,2013-01-06 17:15:00,
2013-01-06 09:30:00,36.8,33.0,30.18,South,180,4.0,15.0,87,0.00,,,0.03,weatherlink.com 1.10,2013-01-06 17:30:00,
2013-01-06 09:45:00,36.6,33.0,30.19,SSE,158,7.0,15.0,86,0.00,,,0.03,weatherlink.com 1.10,2013-01-06 17:45:00,
2013-01-06 10:00:00,36.7,33.0,30.18,South,179,3.0,15.0,86,0.00,,,0.03,weatherlink.com 1.10,2013-01-06 18:00:00,
2013-01-06 10:15:00,37.1,33.0,30.18,SW,217,7.0,13.0,85,0.00,,,0.03,weatherlink.com 1.10,2013-01-06 18:15:00,
2013-01-06 10:30:00,38.1,33.0,30.17,WSW,238,11.0,14.0,82,0.00,,,0.03,weatherlink.com 1.10,2013-01-06 18:30:00,
2013-01-06 10:45:00,39.3,34.0,30.17,South,191,7.0,16.0,80,0.00,,,0.03,weatherlink.com 1.10,2013-01-06 18:45:00,
2013-01-06 11:00:00,39.8,34.0,30.16,NNW,336,7.0,14.0,79,0.00,,,0.03,weatherlink.com 1.10,2013-01-06 19:00:00,
2013-01-06 11:15:00,40.7,34.0,30.15,WSW,245,8.0,15.0,76,0.00,,,0.03,weatherlink.com 1.10,2013-01-06 19:15:00,
2013-01-06 11:30:00,39.6,33.0,30.15,SW,217,14.0,17.0,76,0.00,,,0.03,weatherlink.com 1.10,2013-01-06 19:30:00,
2013-01-06 11:45:00,40.1,33.0,30.14,WNW,297,3.0,14.0,76,0.00,,,0.03,weatherlink.com 1.10,2013-01-06 19:45:00,
2013-01-06 12:00:00,40.5,34.0,30.13,WNW,297,3.0,12.0,77,0.00,,,0.03,weatherlink.com 1.10,2013-01-06 20:00:00,
2013-01-06 12:16:00,40.2,33.0,30.12,SSE,166,12.0,15.0,76,0.00,,,0.03,weatherlink.com 1.10,2013-01-06 20:16:00,
2013-01-06 12:31:00,40.5,35.0,30.11,NW,325,3.0,13.0,80,0.00,,,0.03,weatherlink.com 1.10,2013-01-06 20:31:00,
2013-01-06 12:46:00,40.5,34.0,30.10,NW,313,1.0,18.0,78,0.00,,,0.03,weatherlink.com 1.10,2013-01-06 20:46:00,
2013-01-06 13:01:00,40.4,34.0,30.09,West,266,3.0,15.0,78,0.00,,,0.03,weatherlink.com 1.10,2013-01-06 21:01:00,
2013-01-06 13:16:00,40.7,35.0,30.08,SSW,195,6.0,16.0,81,0.00,,,0.03,weatherlink.com 1.10,2013-01-06 21:16:00,
2013-01-06 13:31:00,40.3,35.0,30.08,South,191,8.0,14.0,81,0.00,,,0.03,weatherlink.com 1.10,2013-01-06 21:31:00,
2013-01-06 13:46:00,39.1,35.0,30.09,NNW,330,2.0,14.0,84,0.01,,,0.04,weatherlink.com 1.10,2013-01-06 21:46:00,
2013-01-06 14:01:00,37.9,35.0,30.08,South,191,2.0,9.0,88,0.03,,,0.06,weatherlink.com 1.10,2013-01-06 22:01:00,
2013-01-06 14:16:00,37.7,35.0,30.08,SW,217,3.0,12.0,89,0.04,,,0.07,weatherlink.com 1.10,2013-01-06 22:16:00,
2013-01-06 14:31:00,38.0,35.0,30.09,SSW,202,5.0,12.0,89,0.04,,,0.07,weatherlink.com 1.10,2013-01-06 22:31:00,
2013-01-06 14:46:00,37.9,35.0,30.09,SSW,207,3.0,11.0,89,0.03,,,0.07,weatherlink.com 1.10,2013-01-06 22:46:00,
2013-01-06 15:01:00,38.0,35.0,30.09,WNW,288,2.0,6.0,90,0.01,,,0.07,weatherlink.com 1.10,2013-01-06 23:01:00,
2013-01-06 15:16:00,38.1,36.0,30.09,SW,217,2.0,7.0,90,0.02,,,0.09,weatherlink.com 1.10,2013-01-06 23:16:00,
2013-01-06 15:31:00,38.3,36.0,30.09,SSW,193,0.0,5.0,91,0.02,,,0.09,weatherlink.com 1.10,2013-01-06 23:31:00,
2013-01-06 15:46:00,38.5,36.0,30.09,West,273,1.0,3.0,91,0.03,,,0.10,weatherlink.com 1.10,2013-01-06 23:46:00,
2013-01-06 16:01:00,38.2,36.0,30.09,WNW,294,2.0,5.0,90,0.03,,,0.10,weatherlink.com 1.10,2013-01-07 00:01:00,
2013-01-06 16:16:00,37.7,35.0,30.09,SW,214,4.0,4.0,91,0.03,,,0.12,weatherlink.com 1.10,2013-01-07 00:16:00,
2013-01-06 16:31:00,37.2,35.0,30.08,SW,217,2.0,8.0,91,0.03,,,0.12,weatherlink.com 1.10,2013-01-07 00:31:00,
2013-01-06 16:46:00,36.7,34.0,30.08,SSW,198,2.0,3.0,91,0.02,,,0.12,weatherlink.com 1.10,2013-01-07 00:46:00,
2013-01-06 17:01:00,36.4,34.0,30.08,South,191,2.0,6.0,91,0.02,,,0.12,weatherlink.com 1.10,2013-01-07 01:01:00,
2013-01-06 17:16:00,36.3,34.0,30.08,ESE,113,0.0,4.0,92,0.00,,,0.12,weatherlink.com 1.10,2013-01-07 01:16:00,
2013-01-06 17:32:00,36.0,34.0,30.09,East,87,0.0,1.0,92,0.00,,,0.12,weatherlink.com 1.10,2013-01-07 01:32:00,
2013-01-06 17:46:00,35.7,34.0,30.08,SSE,165,0.0,5.0,92,0.00,,,0.12,weatherlink.com 1.10,2013-01-07 01:46:00,
2013-01-06 18:01:00,35.7,34.0,30.09,SSW,193,3.0,5.0,93,0.00,,,0.12,weatherlink.com 1.10,2013-01-07 02:01:00,
2013-01-06 18:16:00,35.4,34.0,30.09,SSW,204,2.0,4.0,93,0.00,,,0.12,weatherlink.com 1.10,2013-01-07 02:16:00,
2013-01-06 18:31:00,35.4,34.0,30.09,West,261,0.0,6.0,93,0.00,,,0.12,weatherlink.com 1.10,2013-01-07 02:31:00,
2013-01-06 18:46:00,35.6,34.0,30.09,NW,304,2.0,5.0,92,0.00,,,0.12,weatherlink.com 1.10,2013-01-07 02:46:00,
2013-01-06 19:01:00,36.1,34.0,30.09,West,278,5.0,10.0,90,0.00,,,0.12,weatherlink.com 1.10,2013-01-07 03:01:00,
2013-01-06 19:16:00,36.5,33.0,30.09,West,263,5.0,11.0,88,0.00,,,0.12,weatherlink.com 1.10,2013-01-07 03:16:00,
2013-01-06 19:31:00,36.5,33.0,30.08,WNW,283,0.0,6.0,87,0.00,,,0.12,weatherlink.com 1.10,2013-01-07 03:31:00,
2013-01-06 19:46:00,36.3,33.0,30.09,South,172,4.0,5.0,87,0.00,,,0.12,weatherlink.com 1.10,2013-01-07 03:46:00,
2013-01-06 20:01:00,36.0,32.0,30.09,WSW,257,1.0,5.0,86,0.00,,,0.12,weatherlink.com 1.10,2013-01-07 04:01:00,
2013-01-06 20:16:00,35.6,32.0,30.09,SW,217,0.0,5.0,86,0.00,,,0.12,weatherlink.com 1.10,2013-01-07 04:16:00,
2013-01-06 20:31:00,35.2,32.0,30.09,WNW,297,4.0,7.0,87,0.00,,,0.12,weatherlink.com 1.10,2013-01-07 04:31:00,
2013-01-06 20:46:00,35.3,32.0,30.09,WNW,300,1.0,7.0,87,0.00,,,0.12,weatherlink.com 1.10,2013-01-07 04:46:00,
2013-01-06 21:01:00,35.1,32.0,30.09,WNW,297,5.0,7.0,88,0.00,,,0.12,weatherlink.com 1.10,2013-01-07 05:01:00,
2013-01-06 21:16:00,34.7,32.0,30.10,NW,320,0.0,3.0,89,0.00,,,0.12,weatherlink.com 1.10,2013-01-07 05:16:00,
2013-01-06 21:31:00,35.2,32.0,30.10,NW,307,7.0,8.0,88,0.00,,,0.12,weatherlink.com 1.10,2013-01-07 05:31:00,
2013-01-06 21:46:00,35.5,32.0,30.10,WNW,293,1.0,9.0,86,0.00,,,0.12,weatherlink.com 1.10,2013-01-07 05:46:00,
2013-01-06 22:01:00,35.8,32.0,30.10,NW,311,6.0,18.0,87,0.00,,,0.12,weatherlink.com 1.10,2013-01-07 06:01:00,
2013-01-06 22:16:00,35.9,32.0,30.10,NNW,332,9.0,15.0,86,0.00,,,0.12,weatherlink.com 1.10,2013-01-07 06:16:00,
2013-01-06 22:31:00,35.9,32.0,30.11,WNW,293,8.0,20.0,86,0.00,,,0.12,weatherlink.com 1.10,2013-01-07 06:31:00,
2013-01-06 22:46:00,35.6,32.0,30.11,WNW,293,7.0,16.0,87,0.00,,,0.12,weatherlink.com 1.10,2013-01-07 06:46:00,
2013-01-06 23:01:00,35.7,32.0,30.12,North,10,5.0,13.0,86,0.00,,,0.12,weatherlink.com 1.10,2013-01-07 07:01:00,
2013-01-06 23:16:00,36.3,32.0,30.12,NW,309,7.0,8.0,83,0.00,,,0.12,weatherlink.com 1.10,2013-01-07 07:16:00,
2013-01-06 23:31:00,36.4,32.0,30.12,NNW,345,7.0,12.0,83,0.00,,,0.12,weatherlink.com 1.10,2013-01-07 07:31:00,
2013-01-06 23:46:00,36.0,32.0,30.12,NW,314,3.0,15.0,85,0.00,,,0.12,weatherlink.com 1.10,2013-01-07 07:46:00,